Temp
2 3 4 5 6 8 9 9 10 11 11 11 12 13 13 13 14 14 14 14 15 15 14 14 14 14 14 14 14 14 14 14 15 16 14 14 13 13 14 14 14 14 14
-0 1 3 3 4 6 8 9 9 10 10 11 11 12 13 13 13 13 13 13 14 14 14 14 14 14 14 14 14 14 14 14 14 15 15 14 13 14 13 13 13 14 14
-2 -0 1 1 2 3 5 6 7 8 8 10 10 11 12 12 13 13 12 12 13 14 14 14 14 14 14 13 13 13 13 13 13 13 14 14 13 13 12 12 13 12 13
-3 -3 -2 -1 0 1 3 5 6 7 8 9 9 10 11 12 12 12 12 12 12 13 14 14 14 14 14 13 13 13 13 12 12 11 12 12 13 13 12 12 12 12 12
-5 -4 -4 -3 -2 0 2 3 4 5 6 7 7 9 10 11 11 11 11 11 12 13 13 13 13 13 13 13 12 13 13 13 11 11 11 11 11 11 11 13 11 11 12
-6 -5 -5 -4 -3 -2 -0 1 2 3 4 6 6 7 9 10 10 11 11 12 12 12 13 12 12 13 13 13 13 13 13 13 12 11 11 11 12 12 11 11 10 11 11
-6 -6 -6 -5 -4 -4 -2 -1 0 2 3 4 5 7 7 9 10 10 10 11 10 11 12 12 12 13 13 13 13 12 12 12 12 12 11 11 11 11 11 11 10 9 10
-6 -6 -6 -6 -5 -4 -3 -2 -1 -0 1 2 4 5 7 7 9 10 10 10 11 11 11 12 12 12 12 12 13 13 12 12 12 12 11 11 11 11 11 11 10 10 10
-7 -7 -7 -7 -6 -5 -4 -3 -3 -2 0 1 2 3 5 6 7 8 9 10 10 10 10 11 11 11 12 12 11 11 11 11 12 11 11 11 11 11 10 10 9 9 8
-8 -8 -7 -7 -6 -5 -5 -4 -4 -3 -2 0 2 3 4 5 5 6 7 8 9 9 9 10 10 11 11 11 10 10 10 11 11 10 11 10 11 11 10 10 10 9 8
-8 -8 -7 -7 -6 -5 -5 -5 -4 -3 -2 -1 1 3 4 4 4 5 6 6 7 8 9 9 9 10 10 10 10 9 9 9 9 9 9 10 10 10 10 10 9 9 9
-9 -8 -8 -7 -7 -6 -6 -5 -4 -3 -2 -0 0 1 2 3 3 3 4 5 5 6 7 8 8 9 9 9 9 9 9 9 9 9 9 9 9 10 10 10 10 9 9
-9 -8 -8 -7 -7 -7 -6 -6 -5 -4 -3 -1 0 0 0 0 1 2 3 3 4 4 5 6 7 8 8 8 8 8 8 9 9 9 9 8 9 10 9 9 9 9 8
-9 -9 -8 -8 -7 -7 -7 -7 -6 -5 -4 -3 -3 -2 -1 -0 -0 1 1 2 2 2 3 5 6 6 7 7 8 8 8 8 8 8 8 8 8 9 9 9 9 8 8
-10 -9 -9 -8 -8 -8 -7 -7 -7 -6 -6 -5 -5 -4 -3 -2 -1 -1 -0 0 1 1 2 3 4 5 6 7 7 7 8 8 8 8 8 8 8 8 8 9 8 8 7
-10 -9 -9 -9 -9 -8 -8 -7 -7 -7 -7 -6 -6 -5 -5 -4 -3 -3 -2 -1 0 1 1 2 3 4 4 5 6 7 7 7 7 7 8 8 8 8 8 8 8 7 6
-11 -10 -10 -10 -9 -9 -8 -8 -7 -7 -7 -7 -7 -7 -6 -6 -5 -4 -3 -2 -1 0 1 2 3 4 4 4 5 5 6 6 7 7 7 7 7 7 7 7 6 6 5
-12 -11 -10 -10 -10 -10 -9 -9 -8 -8 -7 -7 -7 -7 -7 -7 -5 -5 -5 -3 -0 0 -0 -0 -0 1 1 2 2 3 4 4 5 6 6 6 6 7 6 5 5 4 4
-12 -11 -11 -10 -11 -11 -11 -10 -9 -9 -9 -8 -8 -8 -8 -7 -7 -6 -6 -5 -4 -4 -4 -3 -3 -2 -1 -1 -0 1 2 2 3 4 5 5 6 6 5 5 5 5 4
-12 -12 -11 -11 -11 -11 -11 -11 -10 -10 -10 -9 -9 -9 -9 -8 -8 -7 -7 -7 -7 -6 -6 -6 -6 -5 -4 -3 -2 -2 -1 0 1 2 3 4 4 5 5 4 4 4 3
-12 -12 -11 -12 -12 -12 -12 -11 -11 -11 -11 -10 -10 -10 -9 -9 -9 -9 -9 -9 -9 -9 -9 -8 -8 -8 -7 -6 -5 -4 -3 -2 -1 -0 1 2 2 3 4 4 4 4 3
-12 -12 -12 -12 -12 -12 -12 -12 -12 -12 -12 -11 -11 -11 -10 -11 -11 -11 -11 -11 -11 -11 -10 -10 -10 -9 -8 -8 -7 -6 -5 -4 -3 -2 -1 0 0 1 2 3 3 3 3
-11 -11 -11 -12 -12 -12 -12 -13 -13 -13 -12 -12 -12 -12 -11 -11 -12 -12 -12 -12 -12 -12 -12 -11 -11 -10 -10 -9 -7 -6 -6 -5 -4 -3 -3 -2 -1 -0 0 1 2 2 2
-12 -11 -11 -12 -12 -12 -12 -13 -13 -13 -13 -13 -13 -12 -12 -13 -13 -13 -13 -13 -13 -13 -12 -12 -12 -10 -9 -8 -7 -6 -6 -5 -5 -4 -3 -2 -2 -1 -1 -0 0 1 1
-11 -11 -12 -12 -12 -12 -13 -13 -13 -14 -14 -14 -13 -13 -13 -13 -14 -14 -14 -14 -14 -14 -12 -11 -11 -10 -10 -9 -8 -7 -6 -6 -5 -4 -4 -3 -2 -2 -1 -1 -0 0 1
-11 -11 -12 -12 -13 -13 -13 -13 -13 -14 -14 -14 -14 -15 -15 -14 -14 -15 -14 -15 -14 -13 -12 -12 -11 -10 -10 -9 -8 -8 -7 -6 -6 -5 -4 -3 -2 -2 -2 -1 -1 -1 -0
Height
814 816 815 817 818 821 824 826 830 832 836 838 841 844 847 849 852 855 858 861 863 865 866 868 870 873 874 876 878 881 883 884 884 884 886 886 885 885 885 885 886 886 886
820 817 816 820 822 822 824 826 829 832 834 836 838 841 844 846 849 851 853 856 858 860 862 864 866 868 869 872 873 876 877 879 881 881 881 882 882 882 882 882 881 882 882
820 820 824 821 822 824 826 828 830 831 833 835 836 837 840 842 845 847 848 851 854 856 858 859 861 863 865 866 867 870 872 874 876 877 877 878 878 878 878 877 877 877 876
820 825 824 824 825 826 827 828 829 830 831 832 833 834 836 838 840 843 845 846 849 851 852 854 855 857 859 861 862 864 867 869 871 872 872 873 874 874 873 874 874 873 871
825 827 827 828 827 827 827 827 828 829 830 830 831 831 832 834 836 838 839 841 844 846 847 848 850 851 853 855 857 858 861 863 865 866 867 868 869 869 869 870 869 869 869
835 829 829 829 828 827 827 827 828 828 828 828 829 829 830 830 832 833 835 836 838 840 841 843 844 846 847 849 852 854 856 857 859 860 861 862 862 864 864 864 865 865 864
835 833 833 832 830 828 827 827 826 826 826 826 826 826 827 828 829 829 831 831 832 833 836 837 839 841 844 844 846 849 851 852 853 855 855 856 857 858 859 859 860 860 858
839 837 835 833 832 830 828 827 826 825 825 824 824 824 824 824 824 825 826 827 828 829 831 832 834 836 839 841 840 842 844 845 846 847 848 850 851 852 853 854 854 853 853
841 839 837 835 834 832 830 829 828 826 825 824 823 822 822 821 821 821 822 822 823 825 827 829 830 831 833 834 837 836 837 838 840 841 842 843 844 845 846 847 846 846 845
843 840 838 836 834 832 831 829 828 826 824 824 823 822 821 821 820 818 818 818 819 820 822 823 824 826 827 829 830 832 831 832 834 834 835 836 837 837 838 839 840 839 841
844 841 839 837 835 833 830 828 826 824 823 822 821 820 820 819 818 816 814 814 815 815 816 817 818 820 821 822 824 824 825 827 827 828 828 829 829 830 830 831 833 833 833
845 842 839 837 835 833 830 828 826 824 822 821 820 818 817 817 816 815 812 812 811 812 812 813 814 814 814 815 816 817 819 821 822 821 822 822 822 823 823 824 826 826 827
846 843 840 837 835 832 830 829 828 825 823 821 820 818 817 816 814 813 811 808 809 809 808 808 807 808 808 808 809 811 812 813 814 814 814 815 814 816 817 818 819 819 820
846 844 841 838 836 833 831 830 829 826 823 822 821 819 817 815 812 810 807 806 806 806 804 802 801 801 801 801 803 804 805 806 806 807 807 807 809 810 811 812 813 813 813
846 845 842 838 836 833 831 829 828 826 825 822 820 819 816 813 811 809 807 805 804 803 801 797 797 797 796 795 796 797 798 799 799 800 801 801 801 802 804 804 806 807 807
846 846 842 838 834 833 830 826 826 824 822 821 819 816 815 812 809 806 804 803 801 800 796 794 792 793 793 792 791 791 791 792 791 793 793 794 794 795 796 796 798 798 799
845 844 841 837 835 832 830 826 821 820 818 817 816 813 811 809 806 802 800 797 796 796 792 790 789 788 788 787 786 786 786 786 787 785 785 785 786 787 788 789 790 789 791
844 842 838 837 836 832 830 826 821 819 816 814 813 810 808 807 800 798 795 792 791 790 789 787 784 784 783 783 782 781 781 780 780 780 778 779 779 780 780 781 782 783 785
841 840 836 834 833 831 828 825 822 819 816 813 810 809 806 802 798 795 793 791 790 788 787 785 783 781 779 779 778 776 776 774 774 772 772 772 772 773 773 774 775 774 777
835 835 835 834 833 829 825 825 823 819 815 813 810 809 804 801 798 795 794 792 791 788 786 785 782 781 778 775 773 773 771 769 768 768 766 767 766 766 765 766 766 768 768
832 832 831 830 828 828 826 823 820 817 815 812 810 808 806 803 798 795 796 792 789 789 787 786 781 778 777 773 769 768 768 766 764 762 761 759 759 757 759 759 759 759 761
827 827 827 825 825 825 822 821 819 817 815 812 808 807 803 801 799 795 794 791 788 786 786 785 780 777 776 769 765 763 762 760 758 756 754 751 751 750 752 751 752 752 752
823 823 823 822 821 820 819 817 816 814 812 809 805 804 802 800 797 794 792 788 785 784 786 783 778 774 777 764 761 761 757 754 752 749 746 744 745 743 743 743 743 744 744
818 818 818 818 818 817 817 815 813 811 808 807 804 801 798 796 794 792 789 786 788 783 780 779 777 771 769 764 760 757 752 752 749 743 738 737 737 737 736 736 735 734 734
813 813 813 813 813 813 812 810 809 808 806 805 802 798 795 794 793 791 791 786 783 779 777 774 771 768 763 761 758 752 749 747 743 737 732 729 729 729 727 725 727 725 725
807 807 806 807 806 807 807 806 805 804 801 800 799 797 795 792 791 788 788 782 779 775 773 770 767 763 761 758 754 750 746 743 735 731 724 722 719 719 720 717 717 717 717
Wind_Speed
14 10 9 7 6 5 6 5 6 9 10 12 12 13 14 15 16 18 18 16 17 17 16 18 20 18 15 16 14 14 14 13 15 16 11 11 11 11 13 15 15 15 13
11 11 12 9 7 6 4 5 7 9 11 12 12 12 15 15 16 17 18 18 19 20 19 17 18 16 17 15 15 16 16 15 15 16 15 14 12 13 13 13 16 19 19
13 12 9 10 9 6 3 2 4 7 4 6 8 11 14 16 16 16 18 19 19 21 21 21 18 17 18 16 17 18 16 16 16 15 15 12 13 11 12 14 17 18 20
15 11 11 10 7 5 3 1 2 4 7 10 12 13 12 14 16 17 16 18 18 20 21 22 21 21 20 18 20 21 19 17 18 16 19 17 14 14 14 14 16 15 17
15 12 12 9 6 4 3 2 2 3 4 5 8 10 12 12 14 16 18 21 19 20 20 19 21 21 21 19 20 22 22 20 20 20 18 14 15 15 15 13 15 15 16
13 13 13 11 9 7 5 4 3 2 3 4 4 6 7 11 14 18 19 17 19 19 20 20 21 23 21 20 20 20 22 22 22 19 17 16 20 19 19 20 15 14 9
15 14 13 12 12 10 8 7 6 5 5 4 4 6 7 10 15 13 17 19 19 19 20 20 20 22 21 18 18 20 23 24 25 20 20 20 20 20 18 17 16 17 18
14 14 14 13 12 12 10 9 9 8 8 7 6 7 9 9 10 15 15 17 19 17 17 22 21 21 22 23 23 23 26 28 31 30 28 25 23 24 21 23 24 23 22
15 15 15 14 13 12 11 11 10 10 9 8 8 8 8 9 9 11 12 15 16 19 17 16 20 22 23 25 21 20 19 19 25 25 27 28 29 30 29 27 26 21 12
16 16 14 13 13 12 12 12 11 10 10 9 9 8 9 9 8 7 9 13 14 17 19 22 24 25 24 25 24 19 21 25 27 27 29 26 27 28 29 27 29 22 15
15 14 13 13 13 12 13 12 12 12 11 10 8 7 8 7 6 7 6 8 12 17 20 22 24 27 28 27 27 26 28 26 23 26 26 25 25 26 27 28 30 30 26
14 13 13 12 12 13 13 12 12 11 10 9 8 7 5 6 7 7 5 5 6 13 17 20 24 25 25 23 22 24 29 28 27 24 23 23 25 28 29 29 27 33 32
13 13 12 11 11 12 12 12 10 9 8 8 8 9 8 9 10 8 8 7 8 10 9 17 23 22 23 23 22 22 24 27 29 25 24 26 29 29 27 25 26 28 30
12 12 12 10 12 10 10 10 10 9 8 8 10 11 12 13 12 11 13 11 11 10 12 13 15 21 25 23 25 25 24 28 29 27 27 28 29 30 29 27 26 28 28
11 12 11 10 11 10 9 8 9 8 8 11 11 12 13 12 11 17 15 14 13 15 17 14 15 17 16 21 25 27 26 28 28 30 28 29 32 32 33 31 29 29 29
9 10 11 12 11 11 11 10 7 7 10 9 8 10 13 14 15 15 15 18 19 18 16 14 15 15 16 17 17 20 25 29 30 30 30 31 33 33 35 34 32 33 31
9 9 11 11 11 12 12 11 12 11 9 6 8 10 11 14 15 16 16 16 19 16 14 13 14 14 15 16 17 19 24 26 28 30 32 34 34 34 33 34 33 32 31
9 9 8 10 11 11 12 11 10 12 13 13 11 13 12 14 16 16 15 14 11 9 10 12 12 14 15 17 18 18 19 21 25 27 28 29 31 31 32 31 31 29 28
9 9 8 10 11 11 10 11 10 10 11 12 14 12 14 18 15 11 11 8 8 8 9 10 12 13 15 17 19 20 21 21 23 23 27 31 29 29 31 32 31 32 31
9 9 9 9 10 10 9 9 10 10 10 11 10 13 16 17 14 13 12 10 11 11 12 12 12 13 13 13 16 19 22 22 22 22 24 28 28 27 31 30 29 28 29
9 9 9 8 7 8 8 9 11 11 11 10 11 10 13 13 11 11 12 12 11 13 13 15 14 15 15 15 14 16 19 22 22 22 23 23 26 27 31 30 30 30 30
11 11 10 9 8 8 8 9 9 10 10 10 11 11 12 10 11 10 11 11 12 13 14 14 14 15 17 16 17 19 21 22 23 24 25 22 25 26 29 29 29 28 29
13 12 11 10 9 9 9 9 9 10 11 11 10 10 10 10 11 11 12 13 13 12 13 14 14 14 17 15 15 17 20 23 25 24 26 26 26 24 25 28 27 27 27
11 13 13 12 11 9 9 9 9 10 10 11 11 10 10 11 12 12 12 13 14 14 14 14 14 15 18 18 15 15 17 22 25 27 23 27 30 29 28 28 29 30 30
15 15 15 15 13 12 10 9 9 10 10 10 10 10 11 11 11 12 13 12 15 17 17 17 17 18 18 17 17 16 20 23 24 23 23 24 29 32 30 28 29 28 29
17 17 16 15 14 12 11 10 10 10 10 11 10 11 11 11 12 12 13 14 16 19 19 19 19 18 19 18 18 19 23 24 23 25 21 22 24 28 29 29 30 29 27
Wind_Direction
47 51 71 75 84 127 146 162 190 215 225 223 222 220 219 221 221 221 226 227 226 226 228 227 230 229 232 229 233 233 234 232 248 262 259 262 263 273 278 280 280 280 282
37 47 52 56 66 92 128 192 206 213 218 224 224 223 220 220 218 217 220 224 228 230 231 230 229 231 230 231 224 230 228 230 234 252 266 266 266 274 267 262 274 272 275
35 43 45 49 57 63 83 172 201 208 221 232 229 225 224 219 217 220 226 226 230 231 232 232 230 228 234 228 226 226 227 228 230 240 260 271 267 268 270 271 273 269 271
35 30 35 36 36 30 28 22 236 234 233 238 239 233 228 225 221 223 227 231 234 235 235 235 234 232 233 233 229 229 227 227 227 234 252 263 260 267 267 271 271 273 270
25 23 22 14 19 20 15 359 330 266 261 269 253 245 237 233 227 224 233 239 235 235 233 232 232 230 232 232 232 238 245 239 234 234 241 249 251 255 253 265 263 272 269
7 17 11 5 4 5 360 353 338 312 302 271 282 263 260 242 233 240 235 238 238 237 235 231 234 236 233 236 244 250 252 248 244 235 234 234 252 251 257 271 258 266 281
10 10 7 1 358 354 348 344 335 324 323 305 282 266 261 248 247 250 246 245 248 237 232 230 229 238 237 236 242 248 251 252 251 243 236 240 251 251 254 257 252 254 252
9 5 1 358 353 350 349 344 337 329 323 316 308 297 273 262 249 247 247 243 248 248 235 232 236 236 240 241 242 246 250 252 250 250 244 250 251 261 257 257 261 269 270
7 1 355 352 346 346 347 340 332 324 320 313 310 309 298 286 276 255 247 246 244 247 243 238 236 242 244 248 247 246 243 251 266 262 257 263 264 262 261 258 246 238 242
358 351 348 347 344 341 337 331 325 319 307 302 301 294 297 301 305 313 267 255 250 249 250 254 249 248 250 254 256 249 249 256 259 261 264 258 258 257 256 251 249 230 224
347 346 347 347 343 337 332 328 325 321 313 303 303 300 293 298 311 310 319 276 264 261 254 254 257 258 257 253 262 255 253 257 258 258 262 266 265 260 256 255 246 248 237
342 344 345 346 344 338 335 331 328 322 315 305 301 305 300 326 325 330 330 316 310 264 258 262 261 259 264 274 272 256 255 257 256 251 253 253 257 260 261 257 252 247 249
340 341 342 342 345 342 340 333 326 326 321 310 301 299 310 301 304 322 323 325 316 312 285 263 256 262 267 274 262 261 257 255 250 247 246 248 253 266 267 262 256 246 245
337 338 339 339 340 345 341 332 325 327 329 322 311 302 301 305 316 327 323 328 314 315 300 285 282 270 257 262 259 260 252 248 247 248 247 249 257 261 258 258 250 245 239
336 333 338 336 336 336 337 330 322 317 318 313 303 303 301 303 306 319 317 312 309 304 310 302 293 285 278 259 253 252 253 253 244 248 249 251 254 254 255 254 246 244 231
332 330 335 336 334 331 332 334 327 316 318 310 304 315 306 295 305 310 308 294 297 296 300 293 286 282 277 269 258 258 254 249 250 251 253 250 251 252 254 248 244 238 230
321 321 331 336 332 331 327 330 332 332 336 331 332 328 321 317 314 313 305 298 283 287 278 282 271 274 278 284 282 276 271 272 267 258 258 252 252 251 251 251 247 237 230
307 309 322 327 329 327 322 321 325 331 333 330 332 338 338 331 330 323 321 309 281 271 281 285 288 289 291 288 288 287 287 282 277 275 267 264 258 255 249 244 242 234 232
295 302 312 322 325 322 319 319 319 322 324 328 332 335 341 342 337 342 344 345 326 317 315 308 299 291 291 292 292 291 285 284 283 282 281 272 267 258 256 249 246 245 235
281 290 296 300 315 322 324 317 319 322 325 326 332 334 341 342 347 350 348 344 335 327 322 312 310 305 299 295 296 299 293 287 285 279 272 273 270 269 261 255 251 240 234
266 278 286 289 308 314 312 314 319 321 320 321 320 326 335 334 339 343 339 341 339 328 323 316 312 307 304 304 298 295 296 294 288 285 278 275 270 270 266 264 257 250 242
269 274 277 278 291 305 309 312 310 311 311 314 321 322 332 337 336 340 337 337 336 333 323 316 315 312 305 307 309 303 299 295 294 292 288 288 282 270 264 259 255 249 242
259 263 268 270 272 291 299 308 305 309 312 314 317 321 327 329 330 332 332 335 335 331 323 320 319 321 309 321 322 318 315 308 301 293 290 287 279 273 267 259 252 245 239
246 256 260 262 259 270 281 293 296 301 308 309 311 313 320 322 323 324 327 329 323 327 328 324 318 322 327 335 333 328 329 314 310 301 286 281 277 270 261 256 253 248 244
258 254 254 250 255 258 272 283 292 294 297 299 303 309 311 314 314 317 314 320 324 328 328 330 327 323 326 328 332 331 334 320 314 304 288 276 272 270 264 256 253 251 247
255 251 248 243 241 244 256 268 279 287 293 297 295 295 298 302 307 308 307 316 322 326 326 327 327 325 321 318 324 329 330 326 322 316 299 279 270 269 264 257 253 248 245